Time,TemperatureF,DewpointF,PressureIn,WindDirection,WindDirectionDegrees,WindSpeedMPH,WindSpeedGustMPH,Humidity,HourlyPrecipIn,Conditions,Clouds,dailyrainin,SoftwareType,DateUTC
2013-04-29 00:09:00,52.1,35.0,30.16,SSE,148,0.0,-999.0,52,-99.99,,,0.00,weatherlink.com 1.10,2013-04-29 04:09:00,
2013-04-29 00:24:00,51.2,35.0,30.16,SSE,148,0.0,-999.0,55,-99.99,,,0.00,weatherlink.com 1.10,2013-04-29 04:24:00,
2013-04-29 00:39:00,50.5,35.0,30.16,SSE,148,0.0,-999.0,56,-99.99,,,0.00,weatherlink.com 1.10,2013-04-29 04:39:00,
2013-04-29 00:54:00,50.4,35.0,30.16,SSE,148,0.0,-999.0,56,-99.99,,,0.00,weatherlink.com 1.10,2013-04-29 04:54:00,
2013-04-29 01:09:00,49.9,35.0,30.17,SSE,148,0.0,-999.0,58,-99.99,,,0.00,weatherlink.com 1.10,2013-04-29 05:09:00,
2013-04-29 01:24:00,49.2,35.0,30.16,SSE,148,0.0,-999.0,59,-99.99,,,0.00,weatherlink.com 1.10,2013-04-29 05:24:00,
2013-04-29 01:39:00,49.0,35.0,30.16,SSE,148,0.0,-999.0,60,-99.99,,,0.00,weatherlink.com 1.10,2013-04-29 05:39:00,
2013-04-29 01:54:00,48.6,36.0,30.16,SSE,148,0.0,-999.0,61,-99.99,,,0.00,weatherlink.com 1.10,2013-04-29 05:54:00,
2013-04-29 02:09:00,47.5,35.0,30.16,SSE,148,0.0,-999.0,63,-99.99,,,0.00,weatherlink.com 1.10,2013-04-29 06:09:00,
2013-04-29 02:24:00,46.7,36.0,30.16,SSE,148,0.0,-999.0,66,-99.99,,,0.00,weatherlink.com 1.10,2013-04-29 06:24:00,
2013-04-29 02:39:00,45.8,36.0,30.16,SSE,148,0.0,-999.0,68,-99.99,,,0.00,weatherlink.com 1.10,2013-04-29 06:39:00,
2013-04-29 02:54:00,45.4,36.0,30.15,SSE,148,0.0,-999.0,69,-99.99,,,0.00,weatherlink.com 1.10,2013-04-29 06:54:00,
2013-04-29 03:09:00,44.8,36.0,30.15,SSE,148,0.0,-999.0,71,-99.99,,,0.00,weatherlink.com 1.10,2013-04-29 07:09:00,
2013-04-29 03:24:00,44.6,36.0,30.14,SSE,148,0.0,-999.0,72,-99.99,,,0.00,weatherlink.com 1.10,2013-04-29 07:24:00,
2013-04-29 03:39:00,44.4,36.0,30.15,SSE,148,0.0,-999.0,72,-99.99,,,0.00,weatherlink.com 1.10,2013-04-29 07:39:00,
2013-04-29 03:54:00,44.3,36.0,30.15,SSE,148,0.0,-999.0,73,-99.99,,,0.00,weatherlink.com 1.10,2013-04-29 07:54:00,
2013-04-29 04:09:00,44.2,36.0,30.15,SSE,148,0.0,-999.0,73,-99.99,,,0.00,weatherlink.com 1.10,2013-04-29 08:09:00,
2013-04-29 04:24:00,44.1,36.0,30.15,SSE,148,0.0,-999.0,73,-99.99,,,0.00,weatherlink.com 1.10,2013-04-29 08:24:00,
2013-04-29 04:39:00,44.2,36.0,30.15,SSE,148,0.0,-999.0,73,-99.99,,,0.00,weatherlink.com 1.10,2013-04-29 08:39:00,
2013-04-29 04:54:00,43.7,36.0,30.15,SSE,148,0.0,-999.0,74,-99.99,,,0.00,weatherlink.com 1.10,2013-04-29 08:54:00,
2013-04-29 05:09:00,43.3,37.0,30.15,SSE,148,0.0,-999.0,77,-99.99,,,0.00,weatherlink.com 1.10,2013-04-29 09:09:00,
2013-04-29 05:24:00,42.9,36.0,30.15,SSE,148,0.0,-999.0,76,-99.99,,,0.00,weatherlink.com 1.10,2013-04-29 09:24:00,
2013-04-29 05:40:00,42.8,36.0,30.15,SSE,148,0.0,-999.0,76,-99.99,,,0.00,weatherlink.com 1.10,2013-04-29 09:40:00,
2013-04-29 05:55:00,42.8,36.0,30.16,SSE,148,0.0,-999.0,76,-99.99,,,0.00,weatherlink.com 1.10,2013-04-29 09:55:00,
2013-04-29 06:10:00,42.9,36.0,30.16,SSE,148,0.0,-999.0,76,-99.99,,,0.00,weatherlink.com 1.10,2013-04-29 10:10:00,
2013-04-29 06:25:00,43.1,36.0,30.16,SSE,148,0.0,-999.0,76,-99.99,,,0.00,weatherlink.com 1.10,2013-04-29 10:25:00,
2013-04-29 06:40:00,44.2,36.0,30.17,SSE,148,0.0,-999.0,73,-99.99,,,0.00,weatherlink.com 1.10,2013-04-29 10:40:00,
2013-04-29 06:55:00,45.2,36.0,30.17,SSE,148,0.0,-999.0,70,-99.99,,,0.00,weatherlink.com 1.10,2013-04-29 10:55:00,
2013-04-29 07:10:00,46.1,36.0,30.17,SSE,148,0.0,-999.0,68,-99.99,,,0.00,weatherlink.com 1.10,2013-04-29 11:10:00,
2013-04-29 07:25:00,46.4,36.0,30.18,SSE,148,0.0,-999.0,67,-99.99,,,0.00,weatherlink.com 1.10,2013-04-29 11:25:00,
2013-04-29 07:40:00,46.7,37.0,30.18,SSE,148,0.0,-999.0,68,-99.99,,,0.00,weatherlink.com 1.10,2013-04-29 11:40:00,
2013-04-29 07:55:00,47.5,37.0,30.18,SSE,148,1.0,-999.0,68,-99.99,,,0.00,weatherlink.com 1.10,2013-04-29 11:55:00,
2013-04-29 08:10:00,48.2,38.0,30.18,SSE,148,0.0,-999.0,67,-99.99,,,0.00,weatherlink.com 1.10,2013-04-29 12:10:00,
2013-04-29 08:25:00,48.6,37.0,30.18,SSE,148,0.0,-999.0,65,-99.99,,,0.00,weatherlink.com 1.10,2013-04-29 12:25:00,
2013-04-29 08:40:00,49.1,38.0,30.18,South,171,0.0,-999.0,65,-99.99,,,0.00,weatherlink.com 1.10,2013-04-29 12:40:00,
2013-04-29 08:55:00,49.6,37.0,30.18,South,171,1.0,-999.0,62,-99.99,,,0.00,weatherlink.com 1.10,2013-04-29 12:55:00,
2013-04-29 09:10:00,50.5,37.0,30.18,SSW,192,0.0,-999.0,60,-99.99,,,0.00,weatherlink.com 1.10,2013-04-29 13:10:00,
2013-04-29 09:25:00,51.8,37.0,30.17,SSW,194,0.0,-999.0,57,-99.99,,,0.00,weatherlink.com 1.10,2013-04-29 13:25:00,
2013-04-29 09:40:00,52.8,37.0,30.17,South,182,0.0,-999.0,55,-99.99,,,0.00,weatherlink.com 1.10,2013-04-29 13:40:00,
2013-04-29 09:55:00,53.2,37.0,30.17,South,186,0.0,-999.0,55,-99.99,,,0.00,weatherlink.com 1.10,2013-04-29 13:55:00,
2013-04-29 10:10:00,53.9,37.0,30.17,South,186,0.0,-999.0,54,-99.99,,,0.00,weatherlink.com 1.10,2013-04-29 14:10:00,
2013-04-29 10:25:00,55.2,37.0,30.16,SSW,212,0.0,-999.0,51,-99.99,,,0.00,weatherlink.com 1.10,2013-04-29 14:25:00,
2013-04-29 10:40:00,56.6,38.0,30.17,SSW,212,0.0,-999.0,50,-99.99,,,0.00,weatherlink.com 1.10,2013-04-29 14:40:00,
2013-04-29 10:55:00,57.8,38.0,30.16,SSW,200,0.0,-999.0,48,-99.99,,,0.00,weatherlink.com 1.10,2013-04-29 14:55:00,
2013-04-29 11:10:00,59.1,39.0,30.16,SW,215,3.0,-999.0,47,-99.99,,,0.00,weatherlink.com 1.10,2013-04-29 15:10:00,
2013-04-29 11:25:00,60.7,38.0,30.15,SSW,202,0.0,-999.0,44,-99.99,,,0.00,weatherlink.com 1.10,2013-04-29 15:25:00,
2013-04-29 11:40:00,61.9,39.0,30.15,SSW,213,4.0,-999.0,43,-99.99,,,0.00,weatherlink.com 1.10,2013-04-29 15:40:00,
2013-04-29 11:55:00,63.8,38.0,30.14,South,173,1.0,-999.0,39,-99.99,,,0.00,weatherlink.com 1.10,2013-04-29 15:55:00,
2013-04-29 12:10:00,64.7,38.0,30.14,West,261,0.0,-999.0,38,-99.99,,,0.00,weatherlink.com 1.10,2013-04-29 16:10:00,
2013-04-29 12:25:00,65.8,38.0,30.13,WSW,245,2.0,-999.0,36,-99.99,,,0.00,weatherlink.com 1.10,2013-04-29 16:25:00,
2013-04-29 12:44:00,65.5,38.0,30.12,East,92,1.0,-999.0,36,-99.99,,,0.00,weatherlink.com 1.10,2013-04-29 16:44:00,
2013-04-29 12:56:00,66.5,38.0,30.12,WSW,252,4.0,-999.0,35,-99.99,,,0.00,weatherlink.com 1.10,2013-04-29 16:56:00,
2013-04-29 13:10:00,68.3,38.0,30.11,WNW,290,0.0,-999.0,33,-99.99,,,0.00,weatherlink.com 1.10,2013-04-29 17:10:00,
2013-04-29 13:26:00,68.8,38.0,30.11,South,178,2.0,-999.0,32,-99.99,,,0.00,weatherlink.com 1.10,2013-04-29 17:26:00,
2013-04-29 13:41:00,68.5,38.0,30.11,SSW,196,4.0,-999.0,33,-99.99,,,0.00,weatherlink.com 1.10,2013-04-29 17:41:00,
2013-04-29 13:56:00,68.4,38.0,30.10,SSW,194,1.0,-999.0,33,-99.99,,,0.00,weatherlink.com 1.10,2013-04-29 17:56:00,
2013-04-29 14:11:00,68.9,36.0,30.09,SSE,148,2.0,-999.0,30,-99.99,,,0.00,weatherlink.com 1.10,2013-04-29 18:11:00,
2013-04-29 14:26:00,69.0,38.0,30.09,South,188,1.0,-999.0,32,-99.99,,,0.00,weatherlink.com 1.10,2013-04-29 18:26:00,
2013-04-29 14:41:00,69.0,37.0,30.09,WSW,244,0.0,-999.0,31,-99.99,,,0.00,weatherlink.com 1.10,2013-04-29 18:41:00,
2013-04-29 14:56:00,69.7,38.0,30.08,SSW,206,1.0,-999.0,32,-99.99,,,0.00,weatherlink.com 1.10,2013-04-29 18:56:00,
2013-04-29 15:11:00,70.5,38.0,30.08,SSW,196,2.0,-999.0,30,-99.99,,,0.00,weatherlink.com 1.10,2013-04-29 19:11:00,
2013-04-29 15:26:00,69.5,39.0,30.08,SW,235,1.0,-999.0,33,-99.99,,,0.00,weatherlink.com 1.10,2013-04-29 19:26:00,
2013-04-29 15:41:00,69.7,39.0,30.08,SSW,192,2.0,-999.0,33,-99.99,,,0.00,weatherlink.com 1.10,2013-04-29 19:41:00,
2013-04-29 15:55:00,69.4,40.0,30.08,West,268,2.0,-999.0,34,-99.99,,,0.00,weatherlink.com 1.10,2013-04-29 19:55:00,
2013-04-29 16:11:00,67.0,39.0,30.08,West,261,1.0,-999.0,36,-99.99,,,0.00,weatherlink.com 1.10,2013-04-29 20:11:00,
2013-04-29 16:26:00,65.8,38.0,30.08,South,189,0.0,-999.0,36,-99.99,,,0.00,weatherlink.com 1.10,2013-04-29 20:26:00,
2013-04-29 16:41:00,65.1,38.0,30.08,South,179,0.0,-999.0,37,-99.99,,,0.00,weatherlink.com 1.10,2013-04-29 20:41:00,
2013-04-29 16:56:00,64.9,39.0,30.09,SSW,204,0.0,-999.0,39,-99.99,,,0.00,weatherlink.com 1.10,2013-04-29 20:56:00,
2013-04-29 17:11:00,64.9,40.0,30.09,SSW,213,0.0,-999.0,41,-99.99,,,0.00,weatherlink.com 1.10,2013-04-29 21:11:00,
2013-04-29 17:26:00,64.7,40.0,30.09,SSW,207,0.0,-999.0,40,-99.99,,,0.00,weatherlink.com 1.10,2013-04-29 21:26:00,
2013-04-29 17:41:00,64.5,40.0,30.09,SSW,208,0.0,-999.0,40,-99.99,,,0.00,weatherlink.com 1.10,2013-04-29 21:41:00,
2013-04-29 17:56:00,64.5,40.0,30.09,SSW,194,0.0,-999.0,41,-99.99,,,0.00,weatherlink.com 1.10,2013-04-29 21:56:00,
2013-04-29 18:11:00,64.2,40.0,30.10,SW,235,1.0,-999.0,41,-99.99,,,0.00,weatherlink.com 1.10,2013-04-29 22:11:00,
2013-04-29 18:26:00,64.0,40.0,30.10,South,190,0.0,-999.0,42,-99.99,,,0.00,weatherlink.com 1.10,2013-04-29 22:26:00,
2013-04-29 18:41:00,63.8,39.0,30.10,SSW,202,0.0,-999.0,41,-99.99,,,0.00,weatherlink.com 1.10,2013-04-29 22:41:00,
2013-04-29 18:56:00,63.3,39.0,30.10,SSW,202,0.0,-999.0,41,-99.99,,,0.00,weatherlink.com 1.10,2013-04-29 22:56:00,
2013-04-29 19:11:00,62.7,40.0,30.11,SSE,154,0.0,-999.0,43,-99.99,,,0.00,weatherlink.com 1.10,2013-04-29 23:11:00,
2013-04-29 19:26:00,62.1,39.0,30.11,SSW,200,1.0,-999.0,42,-99.99,,,0.00,weatherlink.com 1.10,2013-04-29 23:26:00,
2013-04-29 19:41:00,61.6,39.0,30.11,South,190,2.0,-999.0,43,-99.99,,,0.00,weatherlink.com 1.10,2013-04-29 23:41:00,
2013-04-29 19:56:00,61.0,39.0,30.12,SW,214,1.0,-999.0,44,-99.99,,,0.00,weatherlink.com 1.10,2013-04-29 23:56:00,
2013-04-29 20:11:00,60.1,39.0,30.12,South,180,0.0,-999.0,46,-99.99,,,0.00,weatherlink.com 1.10,2013-04-30 00:11:00,
2013-04-29 20:26:00,59.5,39.0,30.12,South,178,1.0,-999.0,47,-99.99,,,0.00,weatherlink.com 1.10,2013-04-30 00:26:00,
2013-04-29 20:41:00,58.9,40.0,30.13,South,190,0.0,-999.0,49,-99.99,,,0.00,weatherlink.com 1.10,2013-04-30 00:41:00,
2013-04-29 20:56:00,58.3,40.0,30.14,South,190,0.0,-999.0,50,-99.99,,,0.00,weatherlink.com 1.10,2013-04-30 00:56:00,
2013-04-29 21:11:00,57.6,39.0,30.14,SSW,193,0.0,-999.0,51,-99.99,,,0.00,weatherlink.com 1.10,2013-04-30 01:11:00,
2013-04-29 21:26:00,57.2,39.0,30.15,SSW,197,0.0,-999.0,52,-99.99,,,0.00,weatherlink.com 1.10,2013-04-30 01:26:00,
2013-04-29 21:41:00,57.0,39.0,30.15,SSW,197,0.0,-999.0,52,-99.99,,,0.00,weatherlink.com 1.10,2013-04-30 01:41:00,
2013-04-29 21:56:00,56.9,39.0,30.15,SSW,197,0.0,-999.0,52,-99.99,,,0.00,weatherlink.com 1.10,2013-04-30 01:56:00,
2013-04-29 22:11:00,56.9,40.0,30.15,SSW,197,0.0,-999.0,53,-99.99,,,0.00,weatherlink.com 1.10,2013-04-30 02:11:00,
2013-04-29 22:26:00,56.6,39.0,30.15,SSW,197,0.0,-999.0,53,-99.99,,,0.00,weatherlink.com 1.10,2013-04-30 02:26:00,
2013-04-29 22:41:00,56.1,40.0,30.16,SSW,197,0.0,-999.0,55,-99.99,,,0.00,weatherlink.com 1.10,2013-04-30 02:41:00,
2013-04-29 22:56:00,55.8,40.0,30.16,South,171,0.0,-999.0,55,-99.99,,,0.00,weatherlink.com 1.10,2013-04-30 02:56:00,
2013-04-29 23:11:00,55.6,39.0,30.16,South,171,0.0,-999.0,54,-99.99,,,0.00,weatherlink.com 1.10,2013-04-30 03:11:00,
2013-04-29 23:26:00,55.7,39.0,30.17,South,178,0.0,-999.0,53,-99.99,,,0.00,weatherlink.com 1.10,2013-04-30 03:26:00,
2013-04-29 23:41:00,55.7,39.0,30.17,SSW,211,0.0,-999.0,53,-99.99,,,0.00,weatherlink.com 1.10,2013-04-30 03:41:00,
2013-04-29 23:56:00,55.3,39.0,30.17,SSW,211,0.0,-999.0,54,-99.99,,,0.00,weatherlink.com 1.10,2013-04-30 03:56:00,